| time (UTC) | temp C | wind direction | speed KPH | gust KPH | rain 1hr cm | rain 24hr cm | rain mn cm | humidity % | barometer mb |
| 20260904193435 | 27 | 1 | 6.4 | 11.3 | 0.00 | 0.00 | 0.00 | 77 | 1015.3 |
| 20260904192930 | 27 | 84 | 4.8 | 9.7 | 0.00 | 0.00 | 0.00 | 76 | 1015.4 |
| 20260904192425 | 27 | 223 | 0.0 | 9.7 | 0.00 | 0.00 | 0.00 | 78 | 1015.7 |
| 20260904191922 | 27 | 53 | 6.4 | 9.7 | 0.00 | 0.00 | 0.00 | 79 | 1015.5 |
| 20260904191418 | 27 | 131 | 6.4 | 11.3 | 0.00 | 0.00 | 0.00 | 79 | 1015.8 |
| 20260904190914 | 27 | 155 | 3.2 | 9.7 | 0.00 | 0.00 | 0.00 | 79 | 1015.6 |
| 20260904190409 | 26 | 151 | 3.2 | 9.7 | 0.00 | 0.00 | 0.00 | 81 | 1015.6 |
| 20260904185906 | 27 | 340 | 1.6 | 9.7 | 0.00 | 0.00 | 0.00 | 80 | 1015.9 |
| 20260904185401 | 26 | 65 | 1.6 | 11.3 | 0.00 | 0.00 | 0.00 | 82 | 1015.9 |
| 20260904184901 | 26 | 121 | 6.4 | 9.7 | 0.00 | 0.00 | 0.00 | 81 | 1015.7 |
| 20260904184356 | 26 | 19 | 3.2 | 6.4 | 0.00 | 0.00 | 0.00 | 82 | 1015.7 |
| 20260904183851 | 25 | 40 | 6.4 | 9.7 | 0.00 | 0.00 | 0.00 | 83 | 1015.7 |
| 20260904183346 | 25 | 22 | 8.0 | 11.3 | 0.00 | 0.00 | 0.00 | 84 | 1015.9 |
| 20260904182842 | 25 | 1 | 8.0 | 9.7 | 0.00 | 0.00 | 0.00 | 83 | 1015.8 |
| 20260904182336 | 25 | 107 | 3.2 | 11.3 | 0.00 | 0.00 | 0.00 | 86 | 1016.0 |
| 20260904181832 | 25 | 75 | 4.8 | 9.7 | 0.00 | 0.00 | 0.00 | 87 | 1016.1 |
| 20260904181332 | 25 | 86 | 6.4 | 9.7 | 0.00 | 0.00 | 0.00 | 86 | 1016.2 |
| 20260904180827 | 25 | 119 | 4.8 | 9.7 | 0.00 | 0.00 | 0.00 | 86 | 1016.2 |
| 20260904180323 | 24 | 34 | 4.8 | 9.7 | 0.00 | 0.00 | 0.00 | 87 | 1016.1 |
| 20260904175821 | 24 | 66 | 3.2 | 4.8 | 0.00 | 0.00 | 0.00 | 88 | 1016.1 |
| 20260904175320 | 24 | 0 | 1.6 | 6.4 | 0.00 | 0.00 | 0.00 | 87 | 1016.1 |
| 20260904174815 | 24 | 64 | 6.4 | 11.3 | 0.00 | 0.00 | 0.00 | 88 | 1016.0 |
| 20260904174311 | 23 | 38 | 8.0 | 12.9 | 0.00 | 0.00 | 0.00 | 88 | 1016.1 |
| 20260904173807 | 23 | 92 | 6.4 | 14.5 | 0.00 | 0.00 | 0.00 | 90 | 1016.1 |
| 20260904173302 | 23 | 15 | 3.2 | 11.3 | 0.00 | 0.00 | 0.00 | 90 | 1015.9 |
| 20260904172758 | 23 | 85 | 3.2 | 11.3 | 0.00 | 0.00 | 0.00 | 91 | 1015.8 |
| 20260904172257 | 23 | 38 | 4.8 | 9.7 | 0.00 | 0.00 | 0.00 | 92 | 1016.0 |
| 20260904171752 | 23 | 64 | 8.0 | 11.3 | 0.00 | 0.00 | 0.00 | 92 | 1016.1 |
| 20260904171248 | 23 | 91 | 4.8 | 9.7 | 0.00 | 0.00 | 0.00 | 92 | 1016.0 |
| 20260904170744 | 22 | 92 | 4.8 | 12.9 | 0.00 | 0.00 | 0.00 | 93 | 1016.3 |
| 20260904170239 | 22 | 63 | 6.4 | 9.7 | 0.00 | 0.00 | 0.00 | 94 | 1015.8 |
| 20260904165738 | 23 | 54 | 8.0 | 12.9 | 0.00 | 0.00 | 0.00 | 93 | 1015.6 |
| 20260904165232 | 22 | 65 | 4.8 | 11.3 | 0.00 | 0.00 | 0.00 | 94 | 1015.7 |
| 20260904164732 | 22 | 16 | 4.8 | 4.8 | 0.00 | 0.00 | 0.00 | 95 | 1015.8 |
| 20260904164227 | 22 | 198 | 1.6 | 4.8 | 0.00 | 0.00 | 0.00 | 96 | 1015.7 |
| 20260904163724 | 22 | 3 | 3.2 | 9.7 | 0.00 | 0.00 | 0.00 | 97 | 1015.6 |
| 20260904163219 | 21 | 11 | 4.8 | 4.8 | 0.00 | 0.00 | 0.00 | 97 | 1015.7 |
| 20260904162718 | 21 | 36 | 6.4 | 9.7 | 0.00 | 0.00 | 0.00 | 98 | 1015.6 |
| 20260904162213 | 21 | 27 | 6.4 | 6.4 | 0.00 | 0.00 | 0.00 | 99 | 1015.6 |
| 20260904161708 | 21 | 43 | 6.4 | 6.4 | 0.00 | 0.00 | 0.00 | 99 | 1015.6 |
| 20260904161203 | 20 | 26 | 1.6 | 6.4 | 0.00 | 0.00 | 0.00 | 99 | 1015.4 |
| 20260904160700 | 20 | 50 | 3.2 | 9.7 | 0.00 | 0.00 | 0.00 | 99 | 1015.3 |
| 20260904160154 | 20 | 27 | 3.2 | 6.4 | 0.00 | 0.00 | 0.00 | 99 | 1015.4 |
| 20260904155649 | 20 | 28 | 3.2 | 6.4 | 0.00 | 0.00 | 0.00 | 99 | 1015.5 |
| 20260904155148 | 20 | 25 | 6.4 | 6.4 | 0.00 | 0.00 | 0.00 | 99 | 1015.4 |
| 20260904154647 | 20 | 116 | 3.2 | 4.8 | 0.00 | 0.00 | 0.00 | 99 | 1015.4 |
| 20260904154142 | 20 | 265 | 0.0 | 6.4 | 0.00 | 0.00 | 0.00 | 99 | 1015.4 |
| 20260904153637 | 20 | 340 | 4.8 | 9.7 | 0.00 | 0.00 | 0.00 | 99 | 1015.4 |
| 20260904153137 | 19 | 104 | 3.2 | 4.8 | 0.00 | 0.00 | 0.00 | 99 | 1015.2 |
| 20260904152634 | 19 | 38 | 4.8 | 9.7 | 0.00 | 0.00 | 0.00 | 99 | 1015.4 |
| 20260904152129 | 19 | 76 | 3.2 | 6.4 | 0.00 | 0.00 | 0.00 | 99 | 1015.5 |
| 20260904151624 | 19 | 88 | 8.0 | 12.9 | 0.00 | 0.00 | 0.00 | 99 | 1015.4 |
| 20260904151123 | 19 | 100 | 3.2 | 6.4 | 0.00 | 0.00 | 0.00 | 99 | 1015.3 |
| 20260904150619 | 19 | 87 | 1.6 | 4.8 | 0.00 | 0.00 | 0.00 | 99 | 1015.2 |
| 20260904150114 | 18 | 66 | 3.2 | 6.4 | 0.00 | 0.00 | 0.00 | 99 | 1015.1 |
| 20260904145612 | 19 | 5 | 1.6 | 4.8 | 0.00 | 0.00 | 0.00 | 99 | 1015.2 |
| 20260904145108 | 18 | 5 | 3.2 | 4.8 | 0.00 | 0.00 | 0.00 | 99 | 1015.3 |
| 20260904144604 | 18 | 33 | 3.2 | 3.2 | 0.00 | 0.00 | 0.00 | 99 | 1015.2 |
| 20260904144059 | 18 | 98 | 1.6 | 4.8 | 0.00 | 0.00 | 0.00 | 99 | 1015.3 |
| 20260904143555 | 18 | 80 | 1.6 | 3.2 | 0.00 | 0.00 | 0.00 | 99 | 1015.1 |
| 20260904143051 | 18 | 54 | 3.2 | 9.7 | 0.00 | 0.00 | 0.00 | 99 | 1015.0 |
| 20260904142548 | 18 | 36 | 1.6 | 4.8 | 0.00 | 0.00 | 0.00 | 99 | 1015.1 |
| 20260904142043 | 18 | 4 | 1.6 | 4.8 | 0.00 | 0.00 | 0.00 | 99 | 1014.7 |
| 20260904141538 | 18 | 39 | 3.2 | 4.8 | 0.00 | 0.00 | 0.00 | 99 | 1014.6 |
| 20260904141034 | 18 | 9 | 3.2 | 6.4 | 0.00 | 0.00 | 0.00 | 99 | 1014.7 |
| 20260904140533 | 18 | 327 | 3.2 | 3.2 | 0.00 | 0.00 | 0.00 | 99 | 1014.6 |
| 20260904140028 | 18 | 100 | 3.2 | 3.2 | 0.00 | 0.00 | 0.00 | 99 | 1014.6 |
| 20260904135527 | 18 | 43 | 3.2 | 9.7 | 0.00 | 0.00 | 0.00 | 99 | 1014.5 |
| 20260904135024 | 18 | 37 | 1.6 | 4.8 | 0.00 | 0.00 | 0.00 | 99 | 1014.4 |
| 20260904134519 | 18 | 78 | 3.2 | 4.8 | 0.00 | 0.00 | 0.00 | 99 | 1014.3 |
| 20260904134013 | 18 | 85 | 3.2 | 4.8 | 0.00 | 0.00 | 0.00 | 99 | 1014.3 |
| 20260904133507 | 18 | 121 | 1.6 | 3.2 | 0.00 | 0.00 | 0.00 | 99 | 1014.2 |
| 20260904133003 | 18 | 56 | 1.6 | 4.8 | 0.00 | 0.00 | 0.00 | 99 | 1014.1 |
| 20260904132458 | 18 | 344 | 1.6 | 4.8 | 0.00 | 0.00 | 0.00 | 99 | 1014.2 |
| 20260904131957 | 18 | 23 | 3.2 | 6.4 | 0.00 | 0.00 | 0.00 | 99 | 1014.2 |
| 20260904131452 | 18 | 359 | 3.2 | 4.8 | 0.00 | 0.00 | 0.00 | 99 | 1014.4 |
| 20260904130948 | 18 | 14 | 3.2 | 6.4 | 0.00 | 0.00 | 0.00 | 99 | 1014.2 |
| 20260904130447 | 18 | 82 | 1.6 | 3.2 | 0.00 | 0.00 | 0.00 | 99 | 1014.2 |
| 20260904125942 | 18 | 102 | 1.6 | 3.2 | 0.00 | 0.00 | 0.00 | 99 | 1014.2 |
| 20260904125438 | 18 | 2 | 3.2 | 3.2 | 0.00 | 0.00 | 0.00 | 99 | 1014.1 |
| 20260904124933 | 18 | 349 | 3.2 | 6.4 | 0.00 | 0.00 | 0.00 | 99 | 1013.7 |
| 20260904124429 | 18 | 258 | 1.6 | 3.2 | 0.00 | 0.00 | 0.00 | 99 | 1013.8 |
| 20260904123924 | 18 | 65 | 3.2 | 6.4 | 0.00 | 0.00 | 0.00 | 99 | 1013.6 |
| 20260904123419 | 18 | 9 | 1.6 | 3.2 | 0.00 | 0.00 | 0.00 | 99 | 1013.5 |
| 20260904122914 | 18 | 4 | 3.2 | 4.8 | 0.00 | 0.00 | 0.00 | 99 | 1013.5 |
| 20260904122414 | 18 | 87 | 3.2 | 3.2 | 0.00 | 0.00 | 0.00 | 99 | 1013.5 |
| 20260904121908 | 18 | 101 | 1.6 | 3.2 | 0.00 | 0.00 | 0.00 | 99 | 1013.4 |
| 20260904121405 | 18 | 331 | 3.2 | 4.8 | 0.00 | 0.00 | 0.00 | 99 | 1013.3 |
| 20260904120901 | 18 | 295 | 0.0 | 3.2 | 0.00 | 0.00 | 0.00 | 99 | 1013.4 |
| 20260904120357 | 18 | 26 | 3.2 | 3.2 | 0.00 | 0.00 | 0.00 | 99 | 1013.5 |
| 20260904115851 | 18 | 328 | 1.6 | 3.2 | 0.00 | 0.00 | 0.00 | 99 | 1013.4 |
| 20260904115346 | 18 | 36 | 0.0 | 1.6 | 0.00 | 0.00 | 0.00 | 99 | 1013.2 |
| 20260904114841 | 18 | 58 | 0.0 | 3.2 | 0.00 | 0.00 | 0.00 | 99 | 1013.2 |
| 20260904114336 | 18 | 150 | 0.0 | 1.6 | 0.00 | 0.00 | 0.00 | 99 | 1013.3 |
| 20260904113831 | 18 | 154 | 0.0 | 0.0 | 0.00 | 0.00 | 0.00 | 99 | 1013.2 |
| 20260904113330 | 18 | 116 | 1.6 | 4.8 | 0.00 | 0.00 | 0.00 | 99 | 1013.1 |
| 20260904112825 | 18 | 88 | 1.6 | 3.2 | 0.00 | 0.00 | 0.00 | 99 | 1012.8 |
| 20260904112320 | 18 | 194 | 0.0 | 1.6 | 0.00 | 0.00 | 0.00 | 99 | 1012.9 |
| 20260904111816 | 18 | 99 | 1.6 | 4.8 | 0.00 | 0.00 | 0.00 | 99 | 1012.9 |
| 20260904111311 | 18 | 77 | 1.6 | 1.6 | 0.00 | 0.00 | 0.00 | 99 | 1012.7 |
| 20260904110807 | 18 | 95 | 4.8 | 6.4 | 0.00 | 0.00 | 0.00 | 99 | 1012.8 |
| 20260904110306 | 18 | 82 | 3.2 | 3.2 | 0.00 | 0.00 | 0.00 | 99 | 1012.8 |
| 20260904105801 | 18 | 70 | 3.2 | 4.8 | 0.00 | 0.00 | 0.00 | 99 | 1012.6 |
| 20260904105256 | 18 | 55 | 6.4 | 6.4 | 0.00 | 0.00 | 0.00 | 99 | 1012.8 |
| 20260904104751 | 18 | 80 | 1.6 | 6.4 | 0.00 | 0.00 | 0.00 | 99 | 1012.7 |
| 20260904104247 | 18 | 68 | 1.6 | 4.8 | 0.00 | 0.00 | 0.00 | 99 | 1012.9 |
| 20260904103743 | 18 | 43 | 1.6 | 3.2 | 0.00 | 0.00 | 0.00 | 99 | 1012.9 |
| 20260904103237 | 18 | 114 | 0.0 | 3.2 | 0.00 | 0.00 | 0.00 | 99 | 1012.6 |
| 20260904102733 | 18 | 116 | 3.2 | 4.8 | 0.00 | 0.00 | 0.00 | 99 | 1012.6 |
| 20260904102229 | 18 | 102 | 1.6 | 6.4 | 0.00 | 0.00 | 0.00 | 99 | 1012.5 |
| 20260904101725 | 18 | 65 | 3.2 | 9.7 | 0.00 | 0.00 | 0.00 | 99 | 1012.7 |
| 20260904101220 | 18 | 79 | 1.6 | 6.4 | 0.00 | 0.00 | 0.00 | 99 | 1012.5 |
| 20260904100717 | 18 | 94 | 4.8 | 9.7 | 0.00 | 0.00 | 0.00 | 99 | 1012.8 |
| 20260904100212 | 18 | 69 | 4.8 | 6.4 | 0.00 | 0.00 | 0.00 | 99 | 1012.6 |
| 20260904095711 | 18 | 49 | 6.4 | 9.7 | 0.00 | 0.00 | 0.00 | 99 | 1012.5 |
| 20260904095206 | 18 | 66 | 1.6 | 3.2 | 0.00 | 0.00 | 0.00 | 99 | 1012.8 |
| 20260904094701 | 18 | 94 | 3.2 | 4.8 | 0.00 | 0.00 | 0.00 | 99 | 1012.6 |
| 20260904094156 | 18 | 69 | 6.4 | 11.3 | 0.00 | 0.00 | 0.00 | 99 | 1012.5 |
| 20260904093654 | 18 | 60 | 1.6 | 9.7 | 0.00 | 0.00 | 0.00 | 99 | 1012.5 |
| 20260904093153 | 18 | 17 | 3.2 | 4.8 | 0.00 | 0.00 | 0.00 | 99 | 1012.5 |
| 20260904092649 | 18 | 115 | 1.6 | 3.2 | 0.00 | 0.00 | 0.00 | 99 | 1012.7 |
| 20260904092145 | 18 | 108 | 1.6 | 3.2 | 0.00 | 0.00 | 0.00 | 99 | 1012.7 |
| 20260904091641 | 18 | 72 | 1.6 | 9.7 | 0.00 | 0.00 | 0.00 | 99 | 1012.7 |
| 20260904091141 | 18 | 7 | 6.4 | 11.3 | 0.00 | 0.00 | 0.00 | 99 | 1012.7 |
| 20260904090636 | 18 | 78 | 3.2 | 4.8 | 0.00 | 0.00 | 0.00 | 99 | 1012.6 |
| 20260904090132 | 18 | 123 | 1.6 | 6.4 | 0.00 | 0.00 | 0.00 | 99 | 1012.4 |
| 20260904085631 | 18 | 125 | 0.0 | 1.6 | 0.00 | 0.00 | 0.00 | 99 | 1012.4 |
| 20260904085126 | 18 | 99 | 3.2 | 9.7 | 0.00 | 0.00 | 0.00 | 99 | 1012.4 |
| 20260904084622 | 18 | 89 | 1.6 | 6.4 | 0.00 | 0.00 | 0.00 | 99 | 1012.2 |
| 20260904084118 | 18 | 119 | 1.6 | 3.2 | 0.00 | 0.00 | 0.00 | 99 | 1011.9 |
| 20260904083614 | 19 | 66 | 3.2 | 4.8 | 0.00 | 0.00 | 0.00 | 99 | 1012.0 |
| 20260904083109 | 19 | 50 | 1.6 | 3.2 | 0.00 | 0.00 | 0.00 | 99 | 1011.9 |
| 20260904082604 | 19 | 59 | 1.6 | 3.2 | 0.00 | 0.00 | 0.00 | 98 | 1011.9 |
| 20260904082100 | 19 | 82 | 3.2 | 6.4 | 0.00 | 0.00 | 0.00 | 98 | 1011.7 |
| 20260904081555 | 19 | 114 | 1.6 | 4.8 | 0.00 | 0.00 | 0.00 | 98 | 1011.6 |
| 20260904081050 | 20 | 99 | 3.2 | 6.4 | 0.00 | 0.00 | 0.00 | 98 | 1011.7 |
| 20260904080546 | 20 | 55 | 6.4 | 6.4 | 0.00 | 0.00 | 0.00 | 98 | 1011.4 |
| 20260904080042 | 20 | 8 | 3.2 | 6.4 | 0.00 | 0.00 | 0.00 | 98 | 1011.2 |
| 20260904075538 | 20 | 92 | 6.4 | 6.4 | 0.00 | 0.00 | 0.00 | 98 | 1011.2 |
| 20260904075032 | 20 | 120 | 1.6 | 3.2 | 0.00 | 0.00 | 0.00 | 98 | 1011.4 |
| 20260904074531 | 20 | 72 | 3.2 | 9.7 | 0.00 | 0.00 | 0.00 | 98 | 1011.3 |
| 20260904074026 | 20 | 95 | 3.2 | 6.4 | 0.00 | 0.00 | 0.00 | 98 | 1011.2 |
| 20260904073521 | 21 | 86 | 4.8 | 6.4 | 0.00 | 0.00 | 0.00 | 98 | 1011.3 |
| 20260904073018 | 21 | 91 | 1.6 | 4.8 | 0.00 | 0.00 | 0.00 | 99 | 1011.3 |
| 20260904072513 | 21 | 81 | 3.2 | 6.4 | 0.00 | 0.00 | 0.00 | 99 | 1011.3 |
| 20260904072008 | 21 | 76 | 1.6 | 4.8 | 0.00 | 0.00 | 0.00 | 99 | 1011.2 |
| 20260904071503 | 21 | 149 | 1.6 | 4.8 | 0.00 | 0.00 | 0.00 | 98 | 1011.4 |
| 20260904070958 | 21 | 88 | 1.6 | 6.4 | 0.00 | 0.00 | 0.00 | 98 | 1011.5 |
| 20260904070457 | 22 | 124 | 3.2 | 9.7 | 0.00 | 0.00 | 0.00 | 98 | 1011.1 |
| 20260904065952 | 22 | 119 | 1.6 | 3.2 | 0.00 | 0.00 | 0.00 | 98 | 1011.2 |
| 20260904065447 | 22 | 123 | 3.2 | 4.8 | 0.00 | 0.00 | 0.00 | 98 | 1011.2 |
| 20260904064942 | 22 | 124 | 0.0 | 6.4 | 0.00 | 0.00 | 0.00 | 98 | 1011.4 |
| 20260904064438 | 22 | 15 | 1.6 | 3.2 | 0.00 | 0.00 | 0.00 | 98 | 1010.9 |
| 20260904063933 | 22 | 123 | 3.2 | 3.2 | 0.00 | 0.00 | 0.00 | 97 | 1010.9 |
| 20260904063430 | 22 | 55 | 3.2 | 14.5 | 0.00 | 0.00 | 0.00 | 97 | 1011.5 |
| 20260904062924 | 23 | 9 | 4.8 | 11.3 | 0.00 | 0.00 | 0.00 | 97 | 1011.2 |
| 20260904062420 | 23 | 137 | 0.0 | 3.2 | 0.00 | 0.00 | 0.00 | 96 | 1010.9 |
| 20260904061916 | 22 | 114 | 3.2 | 6.4 | 0.00 | 0.00 | 0.00 | 97 | 1010.7 |
| 20260904061412 | 23 | 64 | 3.2 | 3.2 | 0.00 | 0.00 | 0.00 | 97 | 1010.6 |
| 20260904060908 | 22 | 88 | 1.6 | 3.2 | 0.00 | 0.00 | 0.00 | 97 | 1010.8 |
| 20260904060404 | 23 | 107 | 3.2 | 4.8 | 0.00 | 0.00 | 0.00 | 97 | 1010.8 |
| 20260904055859 | 23 | 120 | 3.2 | 4.8 | 0.00 | 0.00 | 0.00 | 97 | 1010.8 |
| 20260904055354 | 23 | 124 | 1.6 | 1.6 | 0.00 | 0.00 | 0.00 | 97 | 1010.8 |
| 20260904054850 | 23 | 141 | 1.6 | 3.2 | 0.00 | 0.00 | 0.00 | 97 | 1010.8 |
| 20260904054346 | 23 | 122 | 1.6 | 1.6 | 0.00 | 0.00 | 0.00 | 97 | 1010.8 |
| 20260904053841 | 23 | 195 | 1.6 | 3.2 | 0.00 | 0.00 | 0.00 | 97 | 1010.7 |
| 20260904053340 | 23 | 120 | 1.6 | 3.2 | 0.00 | 0.00 | 0.00 | 97 | 1010.5 |
| 20260904052836 | 23 | 123 | 3.2 | 4.8 | 0.00 | 0.00 | 0.00 | 97 | 1010.5 |
| 20260904052333 | 23 | 70 | 3.2 | 3.2 | 0.00 | 0.00 | 0.00 | 98 | 1010.5 |
| 20260904051829 | 23 | 127 | 1.6 | 1.6 | 0.00 | 0.00 | 0.00 | 98 | 1010.4 |
| 20260904051324 | 23 | 120 | 0.0 | 1.6 | 0.00 | 0.00 | 0.00 | 98 | 1010.4 |
| 20260904050819 | 23 | 128 | 0.0 | 0.0 | 0.00 | 0.00 | 0.00 | 97 | 1010.1 |
| 20260904050316 | 23 | 150 | 0.0 | 1.6 | 0.00 | 0.00 | 0.00 | 97 | 1010.2 |
| 20260904045810 | 23 | 74 | 1.6 | 3.2 | 0.00 | 0.08 | 0.08 | 97 | 1010.2 |
| 20260904045307 | 23 | 210 | 0.0 | 1.6 | 0.00 | 0.08 | 0.08 | 97 | 1010.3 |
| 20260904044759 | 23 | 127 | 0.0 | 0.0 | 0.00 | 0.08 | 0.08 | 96 | 1010.3 |
| 20260904044256 | 23 | 183 | 0.0 | 1.6 | 0.00 | 0.08 | 0.08 | 95 | 1010.2 |
| 20260904043746 | 23 | 78 | 0.0 | 3.2 | 0.00 | 0.08 | 0.08 | 96 | 1010.0 |
| 20260904043243 | 23 | 76 | 3.2 | 3.2 | 0.00 | 0.08 | 0.08 | 96 | 1010.1 |
| 20260904042743 | 23 | 109 | 3.2 | 3.2 | 0.00 | 0.08 | 0.08 | 97 | 1010.1 |
| 20260904042239 | 23 | 89 | 1.6 | 3.2 | 0.00 | 0.08 | 0.08 | 98 | 1010.2 |
| 20260904041738 | 23 | 173 | 0.0 | 0.0 | 0.00 | 0.08 | 0.08 | 98 | 1010.1 |
| 20260904041235 | 23 | 114 | 0.0 | 1.6 | 0.00 | 0.08 | 0.08 | 98 | 1010.1 |
| 20260904040731 | 23 | 96 | 1.6 | 1.6 | 0.00 | 0.08 | 0.08 | 97 | 1010.2 |
| 20260904040226 | 23 | 99 | 1.6 | 1.6 | 0.00 | 0.08 | 0.08 | 96 | 1010.2 |
| 20260904035722 | 23 | 81 | 1.6 | 1.6 | 0.00 | 0.08 | 0.08 | 96 | 1010.2 |
| 20260904035217 | 23 | 174 | 0.0 | 1.6 | 0.00 | 0.08 | 0.08 | 96 | 1010.2 |
| 20260904034716 | 23 | 130 | 0.0 | 1.6 | 0.00 | 0.08 | 0.08 | 97 | 1010.2 |
| 20260904034212 | 23 | 203 | 0.0 | 0.0 | 0.00 | 0.08 | 0.08 | 96 | 1010.1 |
| 20260904033708 | 24 | 123 | 0.0 | 0.0 | 0.00 | 0.08 | 0.08 | 96 | 1010.1 |
| 20260904033204 | 24 | 115 | 1.6 | 1.6 | 0.00 | 0.08 | 0.08 | 95 | 1010.1 |
| 20260904032700 | 24 | 137 | 1.6 | 3.2 | 0.00 | 0.08 | 0.08 | 94 | 1010.1 |
| 20260904032200 | 24 | 339 | 0.0 | 3.2 | 0.00 | 0.08 | 0.08 | 94 | 1010.0 |
| 20260904031700 | 24 | 119 | 1.6 | 3.2 | 0.00 | 0.08 | 0.08 | 95 | 1009.9 |
| 20260904031155 | 24 | 107 | 6.4 | 6.4 | 0.00 | 0.08 | 0.08 | 96 | 1009.7 |
| 20260904030651 | 24 | 167 | 1.6 | 4.8 | 0.00 | 0.08 | 0.08 | 97 | 1009.9 |
| 20260904030146 | 23 | 99 | 1.6 | 4.8 | 0.00 | 0.08 | 0.08 | 97 | 1010.1 |
| 20260904025642 | 24 | 114 | 0.0 | 4.8 | 0.00 | 0.08 | 0.08 | 97 | 1010.1 |
| 20260904025137 | 24 | 23 | 1.6 | 3.2 | 0.00 | 0.08 | 0.08 | 97 | 1009.9 |
| 20260904024632 | 24 | 151 | 0.0 | 1.6 | 0.00 | 0.08 | 0.08 | 96 | 1009.9 |
| 20260904024128 | 25 | 283 | 0.0 | 1.6 | 0.00 | 0.08 | 0.08 | 95 | 1009.9 |
| 20260904023623 | 25 | 24 | 3.2 | 4.8 | 0.00 | 0.08 | 0.08 | 94 | 1009.9 |
| 20260904023114 | 25 | 72 | 1.6 | 3.2 | 0.00 | 0.08 | 0.08 | 93 | 1009.7 |
| 20260904022614 | 25 | 82 | 1.6 | 4.8 | 0.00 | 0.08 | 0.08 | 93 | 1010.0 |
| 20260904022111 | 25 | 141 | 3.2 | 4.8 | 0.00 | 0.08 | 0.08 | 93 | 1009.7 |
| 20260904021606 | 25 | 97 | 4.8 | 4.8 | 0.00 | 0.08 | 0.08 | 93 | 1009.9 |
| 20260904021101 | 25 | 113 | 3.2 | 6.4 | 0.00 | 0.08 | 0.08 | 93 | 1009.6 |
| 20260904020556 | 25 | 99 | 3.2 | 6.4 | 0.13 | 0.08 | 0.08 | 93 | 1009.3 |
| 20260904020050 | 25 | 150 | 1.6 | 4.8 | 0.48 | 0.08 | 0.08 | 91 | 1009.5 |
| 20260904015545 | 27 | 63 | 1.6 | 4.8 | 0.36 | 0.05 | 0.05 | 85 | 1009.9 |
| 20260904015044 | 27 | 325 | 3.2 | 3.2 | 0.00 | 0.00 | 0.00 | 81 | 1009.9 |
| 20260904014538 | 27 | 5 | 3.2 | 4.8 | 0.00 | 0.00 | 0.00 | 81 | 1009.6 |
| 20260904014034 | 27 | 28 | 0.0 | 1.6 | 0.00 | 0.00 | 0.00 | 80 | 1009.4 |
| 20260904013531 | 27 | 117 | 0.0 | 1.6 | 0.00 | 0.00 | 0.00 | 80 | 1009.7 |
| 20260904013027 | 27 | 165 | 1.6 | 4.8 | 0.00 | 0.00 | 0.00 | 79 | 1009.5 |
| 20260904012526 | 27 | 122 | 3.2 | 4.8 | 0.00 | 0.00 | 0.00 | 79 | 1009.2 |
| 20260904012020 | 27 | 110 | 4.8 | 4.8 | 0.00 | 0.00 | 0.00 | 79 | 1009.0 |
| 20260904011514 | 27 | 115 | 4.8 | 4.8 | 0.00 | 0.00 | 0.00 | 78 | 1009.3 |
| 20260904011010 | 27 | 166 | 1.6 | 3.2 | 0.00 | 0.00 | 0.00 | 78 | 1009.5 |
| 20260904010506 | 28 | 110 | 1.6 | 3.2 | 0.00 | 0.00 | 0.00 | 77 | 1009.4 |
| 20260904010002 | 28 | 82 | 3.2 | 3.2 | 0.00 | 0.00 | 0.00 | 77 | 1009.3 |
| 20260904005456 | 28 | 85 | 6.4 | 6.4 | 0.00 | 0.00 | 0.00 | 76 | 1009.4 |
| 20260904004951 | 28 | 88 | 3.2 | 3.2 | 0.00 | 0.00 | 0.00 | 73 | 1009.3 |
| 20260904004448 | 29 | 102 | 3.2 | 3.2 | 0.00 | 0.00 | 0.00 | 71 | 1009.4 |
| 20260904003947 | 29 | 79 | 3.2 | 4.8 | 0.00 | 0.00 | 0.00 | 69 | 1009.3 |
| 20260904003443 | 29 | 115 | 1.6 | 3.2 | 0.00 | 0.00 | 0.00 | 69 | 1009.3 |
| 20260904002938 | 30 | 115 | 1.6 | 3.2 | 0.00 | 0.00 | 0.00 | 69 | 1009.3 |
| 20260904002435 | 30 | 134 | 1.6 | 6.4 | 0.00 | 0.00 | 0.00 | 68 | 1009.0 |
| 20260904001934 | 30 | 87 | 1.6 | 4.8 | 0.00 | 0.00 | 0.00 | 67 | 1009.0 |
| 20260904001429 | 30 | 73 | 3.2 | 4.8 | 0.00 | 0.00 | 0.00 | 66 | 1008.9 |
| 20260904000924 | 31 | 170 | 1.6 | 1.6 | 0.00 | 0.00 | 0.00 | 65 | 1008.9 |
| 20260904000425 | 31 | 68 | 0.0 | 3.2 | 0.00 | 0.00 | 0.00 | 65 | 1008.9 |
| 20260903235919 | 31 | 202 | 1.6 | 1.6 | 0.00 | 0.00 | 0.00 | 64 | 1009.0 |
| 20260903235415 | 31 | 223 | 0.0 | 3.2 | 0.00 | 0.00 | 0.00 | 64 | 1008.8 |
| 20260903234914 | 31 | 214 | 0.0 | 9.7 | 0.00 | 0.00 | 0.00 | 64 | 1008.7 |
| 20260903234410 | 31 | 280 | 3.2 | 6.4 | 0.00 | 0.00 | 0.00 | 64 | 1008.7 |
| 20260903233906 | 31 | 176 | 3.2 | 4.8 | 0.00 | 0.00 | 0.00 | 64 | 1008.5 |
| 20260903233402 | 31 | 236 | 3.2 | 6.4 | 0.00 | 0.00 | 0.00 | 63 | 1008.5 |
| 20260903232902 | 31 | 161 | 3.2 | 6.4 | 0.00 | 0.00 | 0.00 | 64 | 1008.4 |
| 20260903232357 | 31 | 185 | 3.2 | 9.7 | 0.00 | 0.00 | 0.00 | 64 | 1008.5 |
| 20260903231856 | 31 | 258 | 1.6 | 4.8 | 0.00 | 0.00 | 0.00 | 63 | 1008.3 |
| 20260903231351 | 31 | 247 | 4.8 | 11.3 | 0.00 | 0.00 | 0.00 | 63 | 1008.5 |
| 20260903230847 | 31 | 224 | 3.2 | 4.8 | 0.00 | 0.00 | 0.00 | 64 | 1008.3 |
| 20260903230341 | 32 | 110 | 1.6 | 4.8 | 0.00 | 0.00 | 0.00 | 63 | 1008.3 |
| 20260903225838 | 31 | 166 | 4.8 | 9.7 | 0.00 | 0.00 | 0.00 | 64 | 1008.4 |
| 20260903225328 | 31 | 67 | 6.4 | 11.3 | 0.00 | 0.00 | 0.00 | 63 | 1008.4 |
| 20260903224824 | 32 | 86 | 11.3 | 14.5 | 0.00 | 0.00 | 0.00 | 62 | 1008.2 |
| 20260903224320 | 32 | 164 | 1.6 | 9.7 | 0.00 | 0.00 | 0.00 | 62 | 1008.3 |
| 20260903223815 | 32 | 177 | 3.2 | 4.8 | 0.00 | 0.00 | 0.00 | 61 | 1008.2 |
| 20260903223309 | 31 | 164 | 1.6 | 9.7 | 0.00 | 0.00 | 0.00 | 62 | 1008.3 |
| 20260903222804 | 31 | 251 | 1.6 | 6.4 | 0.00 | 0.00 | 0.00 | 62 | 1008.2 |
| 20260903222305 | 31 | 138 | 4.8 | 12.9 | 0.00 | 0.00 | 0.00 | 62 | 1008.1 |
| 20260903221757 | 32 | 247 | 1.6 | 14.5 | 0.00 | 0.00 | 0.00 | 61 | 1008.3 |
| 20260903221256 | 32 | 80 | 6.4 | 9.7 | 0.00 | 0.00 | 0.00 | 60 | 1008.3 |
| 20260903220754 | 32 | 139 | 1.6 | 6.4 | 0.00 | 0.00 | 0.00 | 61 | 1008.4 |
| 20260903220249 | 32 | 151 | 3.2 | 6.4 | 0.00 | 0.00 | 0.00 | 62 | 1008.5 |
| 20260903215742 | 32 | 86 | 3.2 | 9.7 | 0.00 | 0.00 | 0.00 | 60 | 1008.4 |
| 20260903215238 | 32 | 108 | 1.6 | 6.4 | 0.00 | 0.00 | 0.00 | 62 | 1008.5 |
| 20260903214735 | 31 | 82 | 6.4 | 12.9 | 0.00 | 0.00 | 0.00 | 61 | 1008.5 |
| 20260903214232 | 32 | 255 | 3.2 | 9.7 | 0.00 | 0.00 | 0.00 | 61 | 1008.7 |
| 20260903213725 | 32 | 174 | 1.6 | 11.3 | 0.00 | 0.00 | 0.00 | 60 | 1008.5 |
| 20260903213222 | 32 | 150 | 8.0 | 16.1 | 0.00 | 0.00 | 0.00 | 61 | 1008.5 |
| 20260903212712 | 32 | 109 | 4.8 | 14.5 | 0.00 | 0.00 | 0.00 | 59 | 1008.6 |
| 20260903212208 | 32 | 301 | 1.6 | 4.8 | 0.00 | 0.00 | 0.00 | 58 | 1008.6 |
| 20260903211702 | 32 | 67 | 3.2 | 9.7 | 0.00 | 0.00 | 0.00 | 57 | 1008.5 |
| 20260903211159 | 32 | 275 | 8.0 | 11.3 | 0.00 | 0.00 | 0.00 | 57 | 1008.7 |
| 20260903210654 | 32 | 327 | 4.8 | 6.4 | 0.00 | 0.00 | 0.00 | 57 | 1008.4 |
| 20260903210150 | 32 | 242 | 8.0 | 9.7 | 0.00 | 0.00 | 0.00 | 58 | 1008.6 |
| 20260903205649 | 32 | 225 | 8.0 | 11.3 | 0.00 | 0.00 | 0.00 | 58 | 1008.5 |
| 20260903205148 | 32 | 178 | 3.2 | 6.4 | 0.00 | 0.00 | 0.00 | 59 | 1008.5 |
| 20260903204644 | 32 | 83 | 9.7 | 14.5 | 0.00 | 0.00 | 0.00 | 58 | 1008.4 |
| 20260903204140 | 32 | 202 | 1.6 | 9.7 | 0.00 | 0.00 | 0.00 | 58 | 1008.4 |
| 20260903203635 | 31 | 103 | 8.0 | 12.9 | 0.00 | 0.00 | 0.00 | 62 | 1008.1 |
| 20260903203130 | 32 | 99 | 9.7 | 14.5 | 0.00 | 0.00 | 0.00 | 60 | 1008.3 |
| 20260903202625 | 31 | 139 | 6.4 | 9.7 | 0.00 | 0.00 | 0.00 | 60 | 1008.2 |
| 20260903202120 | 32 | 175 | 4.8 | 6.4 | 0.00 | 0.00 | 0.00 | 59 | 1008.3 |
| 20260903201614 | 31 | 124 | 4.8 | 17.7 | 0.00 | 0.00 | 0.00 | 63 | 1008.4 |
| 20260903201114 | 32 | 94 | 14.5 | 17.7 | 0.00 | 0.00 | 0.00 | 59 | 1008.4 |
| 20260903200609 | 32 | 193 | 3.2 | 9.7 | 0.00 | 0.00 | 0.00 | 57 | 1008.4 |
| 20260903200104 | 32 | 189 | 4.8 | 11.3 | 0.00 | 0.00 | 0.00 | 58 | 1008.3 |
| 20260903195600 | 32 | 91 | 3.2 | 11.3 | 0.00 | 0.00 | 0.00 | 57 | 1008.4 |
| 20260903195055 | 32 | 190 | 9.7 | 14.5 | 0.00 | 0.00 | 0.00 | 57 | 1008.3 |
| 20260903194545 | 32 | 143 | 3.2 | 4.8 | 0.00 | 0.00 | 0.00 | 58 | 1008.2 |
| 20260903194040 | 32 | 81 | 6.4 | 14.5 | 0.00 | 0.00 | 0.00 | 58 | 1008.4 |